KUIPER-00159

导读 | 豆包AI

KUIPER-00159是亚马逊柯伊伯(Project Kuiper)太空互联网星座的第159颗卫星,于2026年2月12日由法国阿丽亚娜太空公司(Arianespace)发射升空。柯伊伯计划计划在近地轨道部署超过3000颗卫星,旨在为全球提供高速低延迟的卫星互联网接入服务,此次发射是该星座组网建设进程中的一部分,推动项目从测试阶段向规模化部署推进。

Basic Information
目录编号:
67764
目录名称:
KUIPER-00159
国际标识:
2026-030A
轨道中心:
EARTH
卫星名称:
KUIPER-00159
卫星全名:
KUIPER-00159
卫星状态:
在轨 (已飞行102 天)
发射日期:
2026-02-12 UTC
国别 :
美国 (US)
星等 :
--
Orbit Information
数据来源 国际轨道数据
星历时间: 2026-05-24T06:22:17+0800
1天前
查看轨道信息
半长轴: 6830.686km
偏心率: 0.0006251
轨道倾角: 51.883°
近地点辐角 322.662°
升交点赤经 215.706°
平近点角 37.393°
近地点: 448.279km
远地点: 456.819km
周期: 93.639分钟
每日圈数: 15.378229
Detailed Information
使用方式:
暂无
2D Orbit Map
3D Orbit Map
Orbit Altitude Analysis Chart
Orbit Inclination Analysis Chart
Orbit Comprehensive Analysis Chart
View Comprehensive Chart